Location: Goettingen
(51.5300°N, 9.9433°E)
Time: 06:21:45
(UTC+02:00)

ISS - Pass Details

Date: 06 May 2021
Orbit: 417 x 422 km, 51.6° (Epoch: 18 May)

Event Time Altitude Azimuth Distance (km) Brightness Sun altitude
Exits shadow 02:48:19 31° 123° (ESE) 768 -2.6 -19.1°
Drops below altitude 10° 02:50:43 10° 85° (E) 1,506 -0.6 -18.9°
Sets 02:52:55 0° 76° (ENE) 2,374 0.6 -18.8°
